#timestamp,LO_Frequency,Hit 
1501012895.3,286046998.8,Y
1501012915.2,286046997.1,Y
1501012935.0,286046998.7,N
1501012935.9,286046998.7,N
1501012955.7,286046997.6,N
1501012975.6,286046999.9,N
1501012995.4,286046999.8,N
1501013015.3,286046996.5,Y
1501013035.1,286046995.3,Y
1501013036.0,286046995.3,Y
1501013055.8,286046998.9,N
1501013075.7,286046999.2,N
1501013095.5,286046998.9,N
1501013115.4,286046996.7,N
1501013135.2,286046995.2,N
1501013155.0,286046996.2,N
1501013155.9,286046996.2,N
1501013175.8,286046996.5,N
1501013195.6,286046996.8,N
1501013215.4,286046995.1,Y
1501013235.3,286047000.8,N
1501013255.1,286046999.9,N
1501013275.9,286047001.0,N
1501013295.7,286046998.8,N
1501013315.5,286046998.4,N
1501013335.4,286046998.2,N
1501013355.2,286047002.4,N
1501013375.0,286047002.0,N
1501013375.9,286047011.9,Y
1501013395.8,286047001.4,N
1501013415.6,286047002.5,N
1501013435.5,286047000.6,N
1501013455.3,286046998.7,N
1501013475.1,286047000.5,N
1501013495.9,286046999.9,N
1501013515.7,286046998.1,N
1501013535.5,286047001.2,N
1501013555.4,286046996.9,N
1501013575.2,286046996.9,N
1501013595.1,286046995.5,N
1501013596.0,286046995.5,N
1501013615.8,286046993.9,N
1501013635.6,286046993.7,N
1501013655.5,286046995.1,N
1501013675.3,286046996.2,N
1501013695.2,286046994.2,N
1501013715.9,286046996.3,N
1501013735.7,286046998.3,N
1501013755.6,286047000.7,N
1501013775.4,286047001.2,N
1501013795.2,286047001.2,N
1501013815.1,286047001.2,N
1501013816.0,286047001.2,N
1501013835.8,286047002.8,N
1501013855.7,286046999.3,N
1501013875.5,286046997.1,N
1501013895.3,286046995.3,N
1501013915.2,286046993.5,N
1501013935.0,286046993.4,N
1501013935.9,286046993.4,N
1501013955.7,286046994.2,N
1501013975.6,286046993.7,N
1501013995.4,286046993.4,N
1501014015.3,286046994.8,N
1501014035.1,286046992.6,N
1501014036.0,286046992.6,N
1501014055.8,286046994.6,N
1501014075.7,286046993.3,Y
1501014095.5,286047001.2,N
1501014115.3,286046999.9,N
1501014135.2,286047002.5,N
1501014155.0,286047002.1,N
1501014155.9,286047002.1,N
1501014175.8,286047000.6,N
1501014195.6,286046999.8,N
1501014215.4,286047001.2,N
1501014235.3,286046999.3,N
1501014255.1,286046998.5,N
1501014275.9,286046996.5,N
1501014295.7,286046998.4,N
1501014315.5,286046997.1,N
1501014335.4,286046996.8,N
1501014355.2,286046995.1,N
1501014375.0,286046995.4,N
1501014375.9,286046995.4,N
1501014395.8,286046993.3,N
1501014415.6,286046996.1,N
1501014435.5,286046996.9,N
1501014455.3,286046998.8,N
1501014475.1,286046998.9,N
1501014495.9,286046998.4,N
1501014515.7,286046997.1,N
1501014535.5,286046996.8,N
1501014555.4,286046995.4,Y
1501014575.2,286047001.0,N
1501014595.1,286047001.2,N
1501014596.0,286047001.2,N
1501014615.8,286047001.9,N
1501014635.6,286047009.4,Y
1501014655.5,286047010.5,N
1501014675.3,286047003.6,N
1501014695.2,286047002.7,N
1501014715.9,286046998.9,N
1501014735.7,286046997.4,N
1501014755.6,286046998.0,N
1501014775.4,286046996.7,N
1501014795.2,286047000.9,N
1501014815.1,286046998.7,N
1501014816.0,286046998.7,N
1501014835.8,286046997.4,N
1501014855.7,286046995.5,N
1501014875.5,286046993.6,N
1501014895.3,286046995.6,N
1501014915.2,286046993.7,N
1501014935.0,286046992.3,N
1501014935.9,286046992.3,N
1501014955.8,286046992.6,N
1501014975.6,286046992.4,N
1501014995.4,286046992.7,N
1501015015.3,286046991.4,Y
1501015035.1,286046993.3,N
1501015055.8,286046995.9,N
1501015075.7,286046996.6,N
1501015095.5,286046998.9,N
1501015115.4,286046996.8,N
1501015135.2,286046999.5,N
1501015155.5,286046997.8,N
1501015175.4,286046993.3,N
1501015195.2,286046992.0,Y
1501015215.0,286046998.2,N
1501015216.0,286046998.2,N
1501015235.8,286046998.6,N
1501015255.6,286046998.9,N
1501015275.5,286046999.5,N
1501015295.3,286046996.6,N
1501015315.1,286046998.6,N
1501015335.9,286047002.0,N
1501015355.7,286047002.7,N
1501015375.6,286047005.2,N
1501015395.4,286047012.1,Y
1501015415.2,286047014.3,Y
1501015435.1,286047013.1,N
1501015436.0,286047013.1,N
1501015455.8,286047015.2,N
1501015475.7,286047015.4,N
1501015495.5,286047016.1,N
1501015515.3,286047018.7,N
1501015535.2,286047016.1,N
1501015555.9,286047018.8,N
1501015575.7,286047015.5,N
1501015595.6,28601501015635.5,286047002.0,Y
1501015655.3,286046989.1,N
1501015675.1,286046987.3,N
1501015695.9,286046990.8,N
1501015715.7,286046993.2,N
1501015735.6,286046991.9,N
1501015755.4,286046996.6,N
1501015775.2,286046995.6,N
1501015795.1,286046995.8,N
1501015796.0,286046995.8,N
1501015815.8,286047002.2,N
1501015835.6,286047006.0,N
1501015855.5,286047008.8,N
1501015875.3,286047005.0,N
1501015895.1,286047003.2,N
1501015915.8,286047001.5,N
1501015935.7,286047000.0,N
1501015955.5,286046999.5,N
1501015975.4,286046998.9,N
1501015995.2,286046997.7,N
1501016015.0,286046999.3,N
1501016015.9,286046999.3,N
1501016035.8,286047003.3,N
1501016055.6,286047005.1,N
1501016075.4,286047003.5,N
1501016095.3,286047005.5,N
1501016115.1,286047007.0,N
1501016135.9,286047010.5,Y
1501016155.7,286047009.2,N
1501016175.5,286047014.9,Y
1501016195.4,286047013.9,N
1501016215.2,286047011.4,N
1501016235.1,286047017.2,Y
1501016236.0,286047017.2,Y
1501016255.8,286047001.2,N
1501016275.6,286046995.4,N
1501016295.5,286046998.0,N
1501016315.3,286047001.9,N
1501016335.2,286047001.8,N
1501016355.9,286047003.8,N
1501016375.7,286047003.3,N
1501016395.6,286047008.9,N
